#timestamp,LO_Frequency,Hit 
1502074815.5,286046995.1,N
1502074835.4,286046997.6,N
1502074855.2,286046999.6,N
1502074875.0,286046997.4,N
1502074875.9,286046997.4,N
1502074895.8,286046994.6,N
1502074915.6,286046991.7,N
1502074935.4,286046996.4,N
1502074955.3,286046995.1,N
1502074975.1,286046996.2,N
1502074976.0,286046996.2,N
1502074995.8,286046994.5,N
1502075015.7,286046990.4,P
1502075035.5,286046993.7,N
1502075055.3,286046997.4,N
1502075075.2,286046999.6,N
1502075095.9,286046998.4,N
1502075115.7,286047000.4,N
1502075135.6,286046998.1,N
1502075155.4,286046997.1,N
1502075175.2,286046997.7,N
1502075195.0,286046997.5,N
1502075196.0,286046997.5,N
1502075215.8,286047000.3,N
1502075235.6,286047001.7,N
1502075255.4,286047000.5,N
1502075275.3,286046998.5,N
1502075295.1,286047001.2,N
1502075315.8,286046996.9,N
1502075335.7,286046997.6,N
1502075355.5,286046995.1,N
1502075375.3,286046998.9,N
1502075395.2,286046998.6,N
1502075415.9,286046998.8,N
1502075435.7,286046998.3,N
1502075455.6,286047002.2,N
1502075475.4,286047002.0,N
1502075495.2,286047002.2,N
1502075515.0,286047005.4,N
1502075516.0,286047005.4,N
1502075535.8,286047006.5,N
1502075555.6,286047005.8,N
1502075575.4,286047003.0,N
1502075595.3,286047007.9,N
1502075615.1,286047006.7,N
1502075635.8,286047005.6,N
1502075655.7,286047003.1,N
1502075675.5,286047005.1,N
1502075695.3,286047005.2,N
1502075715.2,286047004.1,N
1502075735.9,286047004.2,N
1502075755.7,286047005.9,N
1502075775.6,286047007.0,N
1502075795.4,286047005.5,N
1502075815.2,286047005.2,N
1502075835.0,286047006.2,N
1502075836.0,286047006.2,N
1502075855.8,286047007.4,N
1502075875.6,286047009.1,N
1502075895.4,286047006.3,N
1502075915.3,286047012.0,P
1502075935.1,286047006.3,N
1502075955.8,286047006.0,N
1502075975.7,286047003.7,N
1502075995.5,286047001.3,N
1502076015.3,286047000.8,N
1502076035.2,286046998.3,N
1502076055.0,286047000.6,N
1502076055.9,286047000.6,N
1502076075.7,286047000.5,N
1502076095.6,286047000.8,N
1502076115.4,286047001.2,N
1502076135.2,286047000.9,N
1502076155.1,286047002.6,N
1502076156.0,286047002.6,N
1502076175.8,286047000.5,N
1502076195.6,286047005.4,N
1502076215.5,286047006.3,N
1502076235.3,286047004.8,N
1502076255.1,286047003.1,N
1502076275.8,286047008.6,N
1502076295.7,286047009.2,N
1502076315.5,286047008.7,N
1502076335.3,286047004.7,N
1502076355.2,286047007.6,N
1502076375.9,286047005.4,N
1502076395.7,286047004.0,N
1502076415.6,286047001.6,N
1502076435.4,286047000.5,N
1502076455.2,286047000.3,N
1502076475.1,286047002.1,N
1502076476.0,286047002.1,N
1502076495.8,286046999.9,N
1502076515.6,286047001.4,N
1502076535.5,286047002.3,N
1502076555.3,286047003.9,N
1502076575.1,286047001.9,N
1502076595.8,286046998.3,N
1502076615.7,286047001.3,N
1502076635.5,286047001.3,N
1502076655.3,286047002.9,N
1502076675.2,286047001.3,N
1502076695.9,286047000.0,N
1502076715.7,286046998.9,N
1502076735.6,286046998.7,N
1502076755.4,286046998.3,N
1502076775.2,286047002.5,N
1502076795.1,286047000.5,N
1502076796.0,286047000.5,N
1502076815.8,286047008.1,N
1502076835.6,286047006.8,N
1502076855.5,286047004.0,N
1502076875.3,286046998.7,N
1502076895.1,286046998.7,N
1502076915.8,286046997.4,N
1502076935.7,286046998.8,N
1502076955.5,286046997.5,N
1502076975.3,286046997.9,N
1502076995.2,286046999.5,N
1502077015.0,286046996.8,N
1502077015.9,286046996.8,N
1502077035.7,286046999.0,N
1502077055.6,286046997.5,N
1502077075.4,286046996.1,N
1502077095.2,286046996.3,N
1502077115.1,286046994.5,N
1502077116.0,286046994.5,N
1502077135.8,286046993.9,N
1502077155.6,286046986.9,P
1502077175.5,286046990.1,N
1502077195.3,286046994.3,N
1502077215.1,286046991.8,N
1502077235.9,286046988.9,N
1502077255.7,286046989.2,N
1502077275.5,286046991.0,N
1502077295.4,286046992.5,N
1502077315.2,286046993.3,N
1502077335.0,286046994.9,N
1502077335.9,286046994.9,N
1502077355.8,286046992.4,N
1502077375.6,286046993.4,N
1502077395.4,286046993.4,N
1502077415.3,286046989.3,P
1502077435.1,286046995.7,N
1502077436.0,286046995.7,N
1502077455.8,286046995.0,N
1502077475.7,286047000.5,N
1502077495.5,286047001.5,N
1502077515.3,286047005.8,N
1502077535.2,286047007.1,N
1502077555.9,286047008.0,N
1502077575.7,286047010.6,N
1502077595.5,286047012.4,N
1502077615.4,286047011.1,N
1502077635.2,286047007.4,N
1502077655.0,286047007.0,N
1502077655.9,286047007.0,N
1502077675.8,286047004.6,N
1502077695.6,286047006.9,N
1502077715.4,286047007.7,N
1502077735.3,286047006.1,N
1502077755.1,286047007.8,N
1502077775.9,286047006.3,N
1502077795.7,286047009.3,N
1502077815.6,286047011.5,N
1502077835.4,286047013.8,N
1502077855.2,286047013.2,N
1502077875.0,286047014.1,N
1502077875.9,286047014.1,N
1502077895.8,286047013.5,N
1502077915.6,286047008.5,N
1502077935.4,286047013.3,N
1502077955.3,286047014.4,N
1502077975.1,286047016.7,P
1502077995.8,286047006.6,N
1502078015.7,286047005.4,N
1502078035.5,286047002.0,N
1502078055.3,286047004.9,N
1502078075.2,286047007.2,N
1502078095.9,286047005.1,N
1502078115.7,286047005.9,N
1502078135.6,286047005.5,N
1502078155.4,286047007.1,N
1502078175.2,286047007.0,N
1502078195.1,286047006.4,N
1502078196.0,286047006.4,N
1502078215.8,286047003.0,N
1502078235.6,286047005.2,N
1502078255.4,286047006.5,N
1502078275.3,286047004.8,N
1502078295.1,286047007.6,N
1502078315.9,286047012.2,P
1502078335.7,286047001.8,N
1502078355.5,286047003.9,N
1502078375.3,286047001.3,N
1502078395.2,286047001.4,N
